When you browse on this site, cookies collect data to enhance your experience and personalize the content and advertising you see.
Visit our Privacy Policy to learn more. By continuing to use the site, you agree to this use of cookies and data.
  • In Romania
  • List of Countries
  • For 7 days
  • Water Temperature
  • Weather Map
  • Weather Widgets
  • user-avatar
    Login

    Hourly Weather Kalgoorlie

    Today, 19 September, Thursday

    Time Temperature Precipitation Wind Pressure Humidity
    00:00 +16°C° 0 mm 8 mps 725 mmHg 62%
    01:00 +16°C° 0 mm 8 mps 725 mmHg 65%
    02:00 +15°C° 0 mm 8 mps 725 mmHg 67%
    03:00 +13°C° 0 mm 8 mps 725 mmHg 69%
    04:00 +13°C° 0 mm 8 mps 725 mmHg 71%
    05:00 +13°C° 0 mm 8 mps 725 mmHg 73%
    06:00 +12°C° 0 mm 9 mps 726 mmHg 64%
    07:00 +12°C° 0 mm 10 mps 727 mmHg 55%
    08:00 +11°C° 0 mm 10 mps 728 mmHg 47%
    09:00 +12°C° 0 mm 10 mps 728 mmHg 42%
    10:00 +13°C° 0 mm 10 mps 728 mmHg 37%
    11:00 +13°C° 0 mm 10 mps 728 mmHg 32%
    12:00 +14°C° 0 mm 10 mps 728 mmHg 32%
    13:00 +14°C° 0 mm 11 mps 728 mmHg 32%
    14:00 +14°C° 0 mm 11 mps 728 mmHg 33%
    15:00 +13°C° 0 mm 10 mps 729 mmHg 33%
    16:00 +13°C° 0 mm 10 mps 729 mmHg 33%
    17:00 +12°C° 0 mm 9 mps 730 mmHg 33%
    18:00 +11°C° 0 mm 8 mps 731 mmHg 38%
    19:00 +10°C° 0 mm 7 mps 732 mmHg 42%
    20:00 +9°C° 0 mm 6 mps 733 mmHg 47%
    21:00 +8°C° 0 mm 5 mps 733 mmHg 50%
    22:00 +7°C° 0 mm 5 mps 733 mmHg 53%
    23:00 +7°C° 0 mm 4 mps 733 mmHg 56%

    Tomorrow, 20 September, Friday

    Time Temperature Precipitation Wind Pressure Humidity
    00:00 +6°C° 0 mm 4 mps 733 mmHg 59%
    01:00 +5°C° 0 mm 4 mps 733 mmHg 62%
    02:00 +5°C° 0 mm 3 mps 734 mmHg 65%
    03:00 +4°C° 0 mm 3 mps 734 mmHg 69%
    04:00 +4°C° 0 mm 3 mps 734 mmHg 72%
    05:00 +4°C° 0 mm 4 mps 735 mmHg 75%
    06:00 +5°C° 0 mm 4 mps 735 mmHg 71%
    07:00 +6°C° 0 mm 5 mps 735 mmHg 66%
    08:00 +7°C° 0 mm 5 mps 736 mmHg 62%
    09:00 +8°C° 0 mm 5 mps 736 mmHg 56%
    10:00 +9°C° 0 mm 5 mps 736 mmHg 50%
    11:00 +12°C° 0 mm 4 mps 736 mmHg 44%
    12:00 +12°C° 0 mm 4 mps 735 mmHg 42%
    13:00 +12°C° 0 mm 4 mps 734 mmHg 40%
    14:00 +13°C° 0 mm 4 mps 734 mmHg 38%
    15:00 +13°C° 0 mm 4 mps 734 mmHg 38%
    16:00 +12°C° 0 mm 5 mps 734 mmHg 39%
    17:00 +12°C° 0 mm 5 mps 734 mmHg 39%
    18:00 +12°C° 0 mm 4 mps 735 mmHg 42%
    19:00 +11°C° 0 mm 3 mps 736 mmHg 45%
    20:00 +10°C° 0 mm 3 mps 736 mmHg 48%
    21:00 +9°C° 0 mm 3 mps 736 mmHg 52%
    22:00 +9°C° 0 mm 3 mps 736 mmHg 57%
    23:00 +8°C° 0 mm 3 mps 736 mmHg 61%

    Day after tomorrow, 21 September, Saturday

    Time Temperature Precipitation Wind Pressure Humidity
    00:00 +7°C° 0 mm 3 mps 736 mmHg 63%
    01:00 +7°C° 0 mm 3 mps 736 mmHg 64%
    02:00 +5°C° 0 mm 3 mps 736 mmHg 65%
    03:00 +5°C° 0 mm 3 mps 736 mmHg 67%
    04:00 +5°C° 0 mm 2 mps 736 mmHg 69%
    05:00 +5°C° 0 mm 2 mps 737 mmHg 72%
    06:00 +6°C° 0 mm 2 mps 737 mmHg 67%
    07:00 +8°C° 0 mm 2 mps 737 mmHg 62%
    08:00 +9°C° 0 mm 2 mps 738 mmHg 58%
    09:00 +10°C° 0 mm 2 mps 738 mmHg 51%
    10:00 +13°C° 0 mm 2 mps 737 mmHg 45%
    11:00 +14°C° 0 mm 2 mps 737 mmHg 39%
    12:00 +14°C° 0 mm 3 mps 737 mmHg 37%
    13:00 +16°C° 0 mm 3 mps 736 mmHg 35%
    14:00 +17°C° 0 mm 4 mps 736 mmHg 32%
    15:00 +15°C° 0 mm 4 mps 736 mmHg 34%
    16:00 +15°C° 0 mm 5 mps 736 mmHg 35%
    17:00 +15°C° 0 mm 5 mps 736 mmHg 36%
    18:00 +13°C° 0 mm 5 mps 737 mmHg 40%
    19:00 +12°C° 0 mm 4 mps 737 mmHg 44%
    20:00 +11°C° 0 mm 4 mps 738 mmHg 48%
    21:00 +10°C° 0 mm 3 mps 738 mmHg 51%
    22:00 +10°C° 0 mm 3 mps 738 mmHg 53%
    23:00 +9°C° 0 mm 2 mps 738 mmHg 55%

    22 September, Sunday

    Time Temperature Precipitation Wind Pressure Humidity
    00:00 +9°C° 0 mm 2 mps 738 mmHg 60%
    01:00 +8°C° 0 mm 3 mps 738 mmHg 64%
    02:00 +8°C° 0 mm 3 mps 738 mmHg 69%
    03:00 +7°C° 0 mm 3 mps 738 mmHg 71%
    04:00 +7°C° 0 mm 3 mps 738 mmHg 74%
    05:00 +7°C° 0 mm 3 mps 738 mmHg 77%
    06:00 +8°C° 0 mm 3 mps 739 mmHg 71%
    07:00 +8°C° 0 mm 4 mps 739 mmHg 64%
    08:00 +10°C° 0 mm 4 mps 739 mmHg 58%
    09:00 +11°C° 0 mm 4 mps 739 mmHg 53%
    10:00 +13°C° 0 mm 3 mps 739 mmHg 48%
    11:00 +14°C° 0 mm 3 mps 739 mmHg 43%
    12:00 +16°C° 0 mm 3 mps 738 mmHg 39%
    13:00 +17°C° 0 mm 3 mps 738 mmHg 35%
    14:00 +18°C° 0 mm 2 mps 737 mmHg 31%
    15:00 +18°C° 0 mm 3 mps 737 mmHg 31%
    16:00 +18°C° 0 mm 3 mps 737 mmHg 30%
    17:00 +18°C° 0 mm 3 mps 737 mmHg 29%
    18:00 +17°C° 0 mm 4 mps 738 mmHg 33%
    19:00 +14°C° 0 mm 4 mps 738 mmHg 36%
    20:00 +13°C° 0 mm 4 mps 739 mmHg 39%
    21:00 +12°C° 0 mm 5 mps 739 mmHg 43%
    22:00 +12°C° 0 mm 5 mps 739 mmHg 47%
    23:00 +10°C° 0 mm 6 mps 739 mmHg 51%

    23 September, Monday

    Time Temperature Precipitation Wind Pressure Humidity
    00:00 +9°C° 0 mm 5 mps 739 mmHg 56%
    01:00 +8°C° 0 mm 5 mps 739 mmHg 60%
    02:00 +8°C° 0 mm 5 mps 738 mmHg 65%
    03:00 +7°C° 0 mm 4 mps 738 mmHg 67%
    04:00 +7°C° 0 mm 4 mps 738 mmHg 69%
    05:00 +8°C° 0 mm 3 mps 738 mmHg 71%
    06:00 +8°C° 0 mm 4 mps 738 mmHg 66%
    07:00 +9°C° 0 mm 5 mps 739 mmHg 62%
    08:00 +11°C° 0 mm 6 mps 739 mmHg 58%
    09:00 +14°C° 0 mm 6 mps 739 mmHg 50%
    10:00 +16°C° 0 mm 5 mps 738 mmHg 42%
    11:00 +19°C° 0 mm 5 mps 738 mmHg 33%
    12:00 +20°C° 0 mm 4 mps 737 mmHg 30%
    13:00 +21°C° 0 mm 4 mps 736 mmHg 27%
    14:00 +22°C° 0 mm 3 mps 736 mmHg 24%
    15:00 +22°C° 0 mm 3 mps 735 mmHg 24%
    16:00 +21°C° 0 mm 3 mps 735 mmHg 23%
    17:00 +21°C° 0 mm 2 mps 735 mmHg 23%
    18:00 +20°C° 0 mm 3 mps 735 mmHg 25%
    19:00 +19°C° 0 mm 3 mps 736 mmHg 27%
    20:00 +18°C° 0 mm 3 mps 736 mmHg 28%
    21:00 +17°C° 0 mm 4 mps 736 mmHg 30%
    22:00 +17°C° 0 mm 4 mps 735 mmHg 31%
    23:00 +15°C° 0 mm 4 mps 735 mmHg 32%

    24 September, Tuesday

    Time Temperature Precipitation Wind Pressure Humidity
    00:00 +14°C° 0 mm 5 mps 735 mmHg 33%
    01:00 +14°C° 0 mm 5 mps 734 mmHg 35%
    02:00 +13°C° 0 mm 5 mps 734 mmHg 36%
    03:00 +13°C° 0 mm 5 mps 734 mmHg 38%
    04:00 +12°C° 0 mm 5 mps 734 mmHg 40%
    05:00 +12°C° 0 mm 5 mps 734 mmHg 42%
    06:00 +13°C° 0 mm 6 mps 734 mmHg 39%
    07:00 +15°C° 0 mm 7 mps 734 mmHg 36%
    08:00 +16°C° 0 mm 8 mps 734 mmHg 33%
    09:00 +20°C° 0 mm 7 mps 733 mmHg 29%
    10:00 +22°C° 0 mm 7 mps 733 mmHg 24%
    11:00 +26°C° 0 mm 7 mps 733 mmHg 20%
    12:00 +27°C° 0 mm 7 mps 732 mmHg 18%
    13:00 +28°C° 0 mm 6 mps 731 mmHg 16%
    14:00 +29°C° 0 mm 6 mps 730 mmHg 15%
    15:00 +28°C° 0 mm 5 mps 730 mmHg 16%
    16:00 +28°C° 0 mm 5 mps 729 mmHg 18%
    17:00 +28°C° 0 mm 5 mps 729 mmHg 19%
    18:00 +26°C° 0.1 mm 5 mps 729 mmHg 27%
    19:00 +23°C° 0.1 mm 5 mps 730 mmHg 35%
    20:00 +20°C° 0.1 mm 5 mps 730 mmHg 43%
    21:00 +19°C° 0.4 mm 5 mps 730 mmHg 51%
    22:00 +17°C° 0.4 mm 6 mps 729 mmHg 60%
    23:00 +16°C° 0.4 mm 6 mps 729 mmHg 68%
    Show more